[[{"header":{"parameterUnit":"m.s-1","parameterCategory":1,"la1":30.2991,"la2":30.254,"lo1":-89.0895,"lo2":-89.0444,"dy":0.0017,"dx":0.0017,"nx":28,"ny":28,"refTime":"2025-02-12T09:00:00:Z","depth":0,"parameterNumber":2,"parameterNumberName":"U-component_of_WINDS"},"data":[0,0,0,0,0,0,0,0,0,0,0,0,0,0,0,0,0,0,0,0,0,0,0,0,0,0,0,0,0,0,0,0,0,0,0,0,0,0,0,0,0,0,0,0,0,0,0,0,0,0,0,0,0,0,0,0,0,0,0.0299,0.0299,0,0.0269,0.0269,0.0269,0.0275,0.0275,0.0276,0.0276,0.0244,0.0243,0.0242,0,0,0,0,0,0,0,0,0,0,0,0,0,0.036,0.0359,0.0299,0.0299,0.0298,0.0269,0.0269,0.0268,0.0274,0.0275,0.0276,0.0276,0.0245,0.0243,0.0242,0,0,0,0,0,0,0,0,0,0,0,0,0,0.0332,0.0359,0.0299,0.0298,0.0297,0.0269,0.0269,0.0268,0.0274,0.0275,0.0276,0.0277,0.0245,0.0243,0.0241,0.0213,0,0,0.0235,0.0234,0,0,0,0,0,0,0,0,0.0334,0.033,0.0298,0.0298,0.0297,0.0276,0.0279,0.025,0.0274,0.0283,0.0276,0.0277,0.0254,0.0252,0.0244,0.0211,0.021,0.0235,0.0234,0.0233,0.0232,0,0,0,0,0,0,0,0.0336,0.0331,0.0287,0.0298,0.0297,0.0298,0.0295,0.0273,0.0264,0.0282,0.0283,0.0279,0.0254,0.0246,0.0244,0.0209,0.0235,0.0233,0.0232,0.0231,0.0152,0.0151,0,0,0,0,0,0,0.0338,0.0333,0.0288,0.0286,0.0318,0.0297,0.0293,0.0282,0.0265,0.0263,0.0278,0.0279,0.0249,0.0246,0.0242,0.0207,0.0233,0.0231,0.023,0.0152,0.0151,0.015,0,0,0,0,0,0,0.034,0.0334,0.0289,0.031,0.0304,0.0295,0.0282,0.0281,0.0273,0.0262,0.026,0.0272,0.025,0.0245,0.022,0.0206,0.023,0.0228,0.0154,0.0152,0.0151,0.0137,0,0,0,0,0,0,0.0341,0.0335,0.0324,0.0309,0.0303,0.0267,0.0282,0.028,0.027,0.0271,0.0255,0.0253,0.025,0.0223,0.0218,0.0204,0.0227,0.0155,0.0153,0.0151,0.0139,0.0135,0.0133,0,0,0,0,0,0.0344,0.0321,0.0323,0.0318,0.0289,0.0267,0.0263,0.026,0.0269,0.0257,0.025,0.0254,0.0209,0.0221,0.0215,0.02,0.0156,0.0153,0.0151,0.014,0.0136,0.0133,0,0,0,0,0,0,0.0333,0.0319,0.0321,0.0293,0.0281,0.0268,0.0253,0.0256,0.0241,0.0242,0.0239,0.0235,0.021,0.0203,0.0216,0.0172,0.0184,0.018,0.0177,0.0173,0.017,0.0172,0.0225,0,0,0,0,0,0.0327,0.031,0.0299,0.0275,0.0269,0.0262,0.0252,0.0251,0.0239,0.0234,0.0225,0.0212,0.0195,0.0184,0.0168,0.0138,0.0135,0.0125,0.0122,0.012,0.0117,0.0101,0.0096,0.0144,0.0144,0.0144,0,0,0.0315,0.0305,0.0295,0.0273,0.0263,0.0246,0.0258,0.0239,0.0226,0.0231,0.0206,0.0199,0.0185,0.0158,0.0145,0.0151,0.0103,0.0117,0.0116,0.0114,0.0098,0.0094,0.009,0.0142,0.0143,0.0143,0,0,0.0284,0.0275,0.0254,0.0245,0.0231,0.0227,0.0222,0.0209,0.0204,0.018,0.0184,0.0168,0.0139,0.0129,0.012,0.0087,0.0089,0.0082,0.0065,0.005,0.0046,0.0043,0.003,0.0026,0.0079,0.0079,0.0079,0,0.027,0.0245,0.0243,0.0224,0.0214,0.0219,0.0198,0.0189,0.017,0.0163,0.017,0.0134,0.0125,0.0095,0.0088,0.008,0.0074,0.0083,0.0047,0.0043,0.004,0.0028,0.0024,0.0078,0.0078,0.0078,0.0078,0,0.0229,0.0211,0.0196,0.0178,0.0167,0.0147,0.0142,0.0131,0.0132,0.0127,0.0102,0.0092,0.0074,0.0067,0.0067,0.0037,0.0041,0.0048,0.0059,0.0035,0.0024,0.0019,0.0077,0.0077,0.0077,0.0078,0,0,0.0188,0.0171,0.0165,0.0158,0.0143,0.0129,0.011,0.0093,0.0083,0.0071,0.0054,0.003,0.0036,0.0026,0.0025,0.0012,-0.0014,0.002,0.0019,0.0013,-0.0047,-0.0053,-0.0058,-0.0012,-0.0013,-0.0013,-0.0047,0,0.0155,0.012,0.0119,0.0088,0.0071,0.0076,0.006,0.0049,0.0044,0.003,0.0025,0.0007,0.0017,0.0011,-0.0002,-0.0008,-0.0027,-0.0006,-0.0028,-0.0029,-0.0026,-0.0064,-0.007,-0.0101,-0.0051,-0.0052,-0.0052,0,0.0111,0.0098,0.0065,0.0054,0.0047,0.0031,0.0016,0.0002,-0.001,-0.0012,-0.0022,-0.0021,-0.0041,-0.0027,-0.0055,-0.004,-0.0049,-0.0053,-0.0055,-0.0058,-0.0043,-0.0069,-0.0111,-0.0116,-0.0059,-0.0058,-0.0058,0,0.0084,0.0058,0.0035,0.0028,0.0015,0.0004,-0.0002,-0.0013,-0.0023,-0.0036,-0.0043,-0.0058,-0.0067,-0.0079,-0.0081,-0.0071,-0.0109,-0.0096,-0.0112,-0.0112,-0.0122,-0.0121,-0.0167,-0.0125,-0.0125,-0.0125,-0.0125,0,0.0046,0.0026,0.0023,0.0008,-0.0015,-0.0015,-0.0038,-0.0043,-0.0052,-0.0067,-0.0064,-0.0078,-0.008,-0.0095,-0.0097,-0.012,-0.0123,-0.0126,-0.0127,-0.0127,-0.0127,-0.0134,-0.0133,-0.0126,-0.0126,-0.0126,-0.0126,0,0.0011,0.0008,-0.0017,-0.0027,-0.003,-0.0046,-0.0055,-0.0069,-0.0072,-0.0091,-0.0096,-0.0101,-0.0119,-0.0122,-0.0143,-0.0144,-0.0171,-0.0169,-0.0167,-0.0167,-0.0184,-0.0183,-0.0236,-0.0244,-0.0197,-0.0197,-0.0198,0,-0.0013,-0.0029,-0.004,-0.005,-0.0057,-0.0072,-0.0082,-0.0083,-0.0093,-0.0107,-0.0119,-0.0135,-0.0149,-0.0177,-0.0183,-0.0198,-0.0197,-0.0215,-0.0199,-0.0199,-0.0198,-0.0198,-0.02,-0.0218,-0.0219,-0.0219,-0.0219,0,-0.0056,-0.0057,-0.0071,-0.0085,-0.0097,-0.0109,-0.012,-0.0128,-0.013,-0.0141,-0.0159,-0.0169,-0.0189,-0.0206,-0.0221,-0.0227,-0.0224,-0.0224,-0.0229,-0.023,-0.0229,-0.023,-0.0176,-0.0223,-0.0223,-0.0222,-0.0222,-0.0222,-0.0088,-0.0101,-0.0111,-0.0127,-0.0135,-0.0145,-0.0158,-0.0163,-0.0177,-0.0193,-0.0193,-0.0212,-0.0222,-0.0242,-0.0249,-0.0264,-0.0258,-0.0265,-0.0267,-0.0269,-0.0271,-0.0225,-0.0266,-0.0266,-0.0266,-0.0266,-0.0266,0,-0.0131,-0.0137,-0.0152,-0.0167,-0.0179,-0.0173,-0.0185,-0.0195,-0.0212,-0.0222,-0.0235,-0.0254,-0.027,-0.0276,-0.0292,-0.0303,-0.0301,-0.0307,-0.0307,-0.0308,-0.0275,-0.0269,-0.0307,-0.0307,-0.0307,-0.0307,-0.0307,-0.0307,-0.0156,-0.0178,-0.018,-0.0206,-0.0212,-0.023,-0.0237,-0.0246,-0.0254,-0.0276,-0.0289,-0.0292,-0.0301,-0.0317,-0.0331,-0.0332,-0.0339,-0.0345,-0.0346,-0.0315,-0.0311,-0.0307,-0.0302,-0.0346,-0.0346,-0.0378,-0.0379,-0.0379]},{"header":{"parameterUnit":"m.s-1","parameterCategory":1,"la1":30.2991,"la2":30.254,"lo1":-89.0895,"lo2":-89.0444,"dy":0.0017,"dx":0.0017,"nx":28,"ny":28,"refTime":"2025-02-12T09:00:00:Z","depth":0,"parameterNumber":3,"parameterNumberName":"V-component_of_WINDS"},"data":[0,0,0,0,0,0,0,0,0,0,0,0,0,0,0,0,0,0,0,0,0,0,0,0,0,0,0,0,0,0,0,0,0,0,0,0,0,0,0,0,0,0,0,0,0,0,0,0,0,0,0,0,0,0,0,0,0,0,-5.6208,-5.6209,0,-5.6289,-5.629,-5.6291,-5.6278,-5.6276,-5.6275,-5.6274,-5.635,-5.6354,-5.6357,0,0,0,0,0,0,0,0,0,0,0,0,0,-5.6038,-5.6041,-5.6208,-5.6209,-5.621,-5.6289,-5.629,-5.6291,-5.6278,-5.6276,-5.6274,-5.6273,-5.6349,-5.6353,-5.6357,0,0,0,0,0,0,0,0,0,0,0,0,0,-5.6114,-5.6042,-5.6208,-5.6213,-5.6214,-5.6289,-5.629,-5.6291,-5.6278,-5.6276,-5.6274,-5.6272,-5.6348,-5.6353,-5.6358,-5.643,0,0,-5.6373,-5.6375,0,0,0,0,0,0,0,0,-5.611,-5.6121,-5.6211,-5.6213,-5.6215,-5.6271,-5.6258,-5.6338,-5.6279,-5.6254,-5.6273,-5.6271,-5.6325,-5.6332,-5.6352,-5.6433,-5.6437,-5.6373,-5.6376,-5.6379,-5.638,0,0,0,0,0,0,0,-5.6105,-5.6117,-5.624,-5.6213,-5.6215,-5.621,-5.6219,-5.6273,-5.63,-5.6256,-5.6255,-5.6265,-5.6326,-5.6347,-5.6353,-5.6438,-5.6373,-5.6378,-5.6381,-5.6383,-5.6585,-5.6587,0,0,0,0,0,0,-5.6099,-5.6113,-5.6237,-5.6242,-5.6156,-5.6215,-5.6224,-5.6255,-5.6299,-5.6304,-5.6267,-5.6264,-5.6339,-5.6347,-5.6356,-5.6445,-5.6379,-5.6383,-5.6386,-5.6583,-5.6585,-5.6588,0,0,0,0,0,0,-5.6095,-5.611,-5.6234,-5.6177,-5.6193,-5.622,-5.6254,-5.6258,-5.6279,-5.6308,-5.6312,-5.6284,-5.6338,-5.6349,-5.6412,-5.6447,-5.6385,-5.639,-5.658,-5.6583,-5.6587,-5.6623,0,0,0,0,0,0,-5.609,-5.6109,-5.6137,-5.6178,-5.6196,-5.6291,-5.6256,-5.6261,-5.6288,-5.6286,-5.6325,-5.6329,-5.6337,-5.6405,-5.6417,-5.6453,-5.6394,-5.6577,-5.6581,-5.6586,-5.6619,-5.6627,-5.6634,0,0,0,0,0,-5.6084,-5.6142,-5.6139,-5.6154,-5.6233,-5.6293,-5.6303,-5.6312,-5.6291,-5.632,-5.6338,-5.6328,-5.6441,-5.6412,-5.6425,-5.6463,-5.6575,-5.658,-5.6585,-5.6615,-5.6625,-5.6634,0,0,0,0,0,0,-5.6102,-5.6148,-5.6144,-5.6218,-5.6252,-5.629,-5.6327,-5.6323,-5.6362,-5.6358,-5.6366,-5.6375,-5.644,-5.6458,-5.6424,-5.6536,-5.6505,-5.6513,-5.6523,-5.6533,-5.6541,-5.6535,-5.6398,0,0,0,0,0,-5.6115,-5.6162,-5.6198,-5.6259,-5.6277,-5.6299,-5.6325,-5.6331,-5.6365,-5.6379,-5.6402,-5.6435,-5.6478,-5.6506,-5.6547,-5.6621,-5.663,-5.6653,-5.6661,-5.6668,-5.6675,-5.6717,-5.6728,-5.6606,-5.6606,-5.6605,0,0,-5.6141,-5.6172,-5.62,-5.6264,-5.6291,-5.6338,-5.6311,-5.6361,-5.6397,-5.6386,-5.6449,-5.6467,-5.6504,-5.6573,-5.6605,-5.659,-5.6711,-5.6675,-5.6679,-5.6683,-5.6724,-5.6735,-5.6746,-5.6609,-5.6609,-5.6608,0,0,-5.6214,-5.6242,-5.6297,-5.6325,-5.6368,-5.6382,-5.6396,-5.6436,-5.6448,-5.6512,-5.6505,-5.6546,-5.662,-5.6647,-5.6671,-5.6756,-5.6748,-5.6769,-5.681,-5.6851,-5.6861,-5.6869,-5.6901,-5.6912,-5.6776,-5.6776,-5.6776,0,-5.6241,-5.6314,-5.6325,-5.6378,-5.6406,-5.6401,-5.6457,-5.6483,-5.6536,-5.6555,-5.6538,-5.6632,-5.6656,-5.6733,-5.6754,-5.6773,-5.6788,-5.6765,-5.6859,-5.6868,-5.6876,-5.6906,-5.6918,-5.6778,-5.6778,-5.6778,-5.6778,0,-5.6345,-5.6396,-5.6435,-5.649,-5.6522,-5.6576,-5.6595,-5.6626,-5.6628,-5.6644,-5.671,-5.6739,-5.6787,-5.6805,-5.6806,-5.6883,-5.6873,-5.6857,-5.6826,-5.689,-5.6919,-5.693,-5.6782,-5.6781,-5.678,-5.678,0,0,-5.6431,-5.6493,-5.6507,-5.6533,-5.658,-5.6619,-5.6672,-5.6722,-5.6749,-5.6785,-5.683,-5.6894,-5.6881,-5.6908,-5.6912,-5.6948,-5.7016,-5.6928,-5.6929,-5.6945,-5.7103,-5.7115,-5.7129,-5.7011,-5.7013,-5.7015,-5.71,0,-5.6509,-5.6607,-5.6619,-5.6705,-5.6752,-5.6749,-5.6796,-5.6829,-5.6846,-5.6887,-5.6905,-5.6951,-5.6929,-5.6946,-5.6981,-5.7,-5.7048,-5.6994,-5.7052,-5.7054,-5.7045,-5.7144,-5.7156,-5.7236,-5.7112,-5.7113,-5.7115,0,-5.6613,-5.6657,-5.6748,-5.6791,-5.6811,-5.6853,-5.6901,-5.6941,-5.6978,-5.6988,-5.702,-5.702,-5.7075,-5.7041,-5.7116,-5.708,-5.7104,-5.7117,-5.712,-5.7127,-5.7089,-5.7154,-5.7261,-5.7274,-5.7132,-5.7131,-5.713,0,-5.6669,-5.6749,-5.6815,-5.6837,-5.6888,-5.6918,-5.694,-5.6976,-5.7006,-5.7046,-5.7066,-5.7111,-5.7136,-5.7171,-5.7184,-5.7158,-5.7259,-5.7226,-5.7268,-5.7268,-5.729,-5.7289,-5.7404,-5.7304,-5.7304,-5.7304,-5.7303,0,-5.6756,-5.6812,-5.6841,-5.6881,-5.6945,-5.6958,-5.702,-5.704,-5.7073,-5.7117,-5.7115,-5.7156,-5.717,-5.7212,-5.7222,-5.7284,-5.7295,-5.7304,-5.7306,-5.7305,-5.7304,-5.7322,-5.7317,-5.7307,-5.7306,-5.7305,-5.7305,0,-5.6828,-5.685,-5.6922,-5.6966,-5.6978,-5.7023,-5.7059,-5.7098,-5.7115,-5.717,-5.7184,-5.721,-5.7261,-5.7277,-5.7336,-5.7343,-5.7416,-5.7412,-5.7404,-5.7405,-5.7447,-5.7443,-5.7579,-5.7598,-5.7484,-5.7485,-5.7486,0,-5.6883,-5.6927,-5.6976,-5.7007,-5.7032,-5.708,-5.7112,-5.7126,-5.7159,-5.7207,-5.724,-5.729,-5.7332,-5.7412,-5.7436,-5.7482,-5.748,-5.7524,-5.7487,-5.7485,-5.7483,-5.748,-5.7485,-5.7532,-5.7533,-5.7534,-5.7535,0,-5.6978,-5.6988,-5.7034,-5.7085,-5.7123,-5.7163,-5.7202,-5.7226,-5.7246,-5.7283,-5.7336,-5.7369,-5.7432,-5.7482,-5.753,-5.7551,-5.7546,-5.7546,-5.7559,-5.7559,-5.7553,-5.7558,-5.7425,-5.7543,-5.7542,-5.7542,-5.7541,-5.7541,-5.7045,-5.7084,-5.7127,-5.7179,-5.721,-5.7247,-5.7286,-5.731,-5.7355,-5.741,-5.7415,-5.7472,-5.751,-5.7574,-5.7598,-5.7642,-5.7629,-5.7647,-5.7652,-5.7656,-5.7661,-5.7545,-5.765,-5.765,-5.765,-5.765,-5.765,0,-5.7141,-5.7169,-5.7217,-5.7273,-5.7314,-5.7309,-5.7351,-5.7386,-5.7438,-5.7474,-5.7516,-5.7578,-5.7627,-5.7655,-5.7704,-5.7735,-5.7734,-5.7747,-5.7745,-5.7751,-5.7668,-5.7653,-5.7747,-5.7747,-5.7747,-5.7747,-5.7747,-5.7747,-5.7197,-5.7265,-5.7279,-5.7363,-5.7389,-5.7448,-5.7473,-5.7507,-5.7536,-5.7607,-5.7649,-5.7668,-5.7701,-5.7753,-5.7798,-5.7804,-5.7823,-5.7838,-5.7843,-5.7766,-5.7756,-5.7747,-5.7733,-5.7842,-5.7842,-5.7922,-5.7923,-5.7924]}]]